Year,Month,Day,Hour,Minute,Value (Times are PST for temperature in C)
2012,07,13,00,00,19.60
2012,07,13,00,01,19.60
2012,07,13,00,02,19.60
2012,07,13,00,03,19.60
2012,07,13,00,04,19.60
2012,07,13,00,05,19.60
2012,07,13,00,06,19.60
2012,07,13,00,07,19.50
2012,07,13,00,08,19.50
2012,07,13,00,09,19.50
2012,07,13,00,10,19.40
2012,07,13,00,11,19.40
2012,07,13,00,12,19.40
2012,07,13,00,13,19.40
2012,07,13,00,14,19.40
2012,07,13,00,15,19.40
2012,07,13,00,16,19.30
2012,07,13,00,17,19.30
2012,07,13,00,18,19.30
2012,07,13,00,19,19.30
2012,07,13,00,20,19.20
2012,07,13,00,21,19.20
2012,07,13,00,22,19.20
2012,07,13,00,23,19.20
2012,07,13,00,24,19.20
2012,07,13,00,25,19.10
2012,07,13,00,26,19.10
2012,07,13,00,27,19.00
2012,07,13,00,28,19.00
2012,07,13,00,29,19.00
2012,07,13,00,30,18.90
2012,07,13,00,31,18.90
2012,07,13,00,32,18.90
2012,07,13,00,33,18.80
2012,07,13,00,34,18.80
2012,07,13,00,35,18.80
2012,07,13,00,36,18.80
2012,07,13,00,37,18.70
2012,07,13,00,38,18.70
2012,07,13,00,39,18.70
2012,07,13,00,40,18.60
2012,07,13,00,41,18.60
2012,07,13,00,42,18.50
2012,07,13,00,43,18.50
2012,07,13,00,44,18.50
2012,07,13,00,45,18.40
2012,07,13,00,46,18.40
2012,07,13,00,47,18.40
2012,07,13,00,48,18.30
2012,07,13,00,49,18.30
2012,07,13,00,50,18.30
2012,07,13,00,51,18.30
2012,07,13,00,52,18.20
2012,07,13,00,53,18.20
2012,07,13,00,54,18.10
2012,07,13,00,55,18.10
2012,07,13,00,56,18.00
2012,07,13,00,57,17.90
2012,07,13,00,58,17.80
2012,07,13,00,59,17.70
2012,07,13,01,00,17.70
2012,07,13,01,01,17.60
2012,07,13,01,02,17.50
2012,07,13,01,03,17.50
2012,07,13,01,04,17.40
2012,07,13,01,05,17.30
2012,07,13,01,06,17.20
2012,07,13,01,07,17.10
2012,07,13,01,08,17.10
2012,07,13,01,09,17.00
2012,07,13,01,10,16.90
2012,07,13,01,11,16.80
2012,07,13,01,12,16.80
2012,07,13,01,13,16.70
2012,07,13,01,14,16.70
2012,07,13,01,15,16.60
2012,07,13,01,16,16.60
2012,07,13,01,17,16.50
2012,07,13,01,18,16.50
2012,07,13,01,19,16.40
2012,07,13,01,20,16.30
2012,07,13,01,21,16.30
2012,07,13,01,22,16.20
2012,07,13,01,23,16.20
2012,07,13,01,24,16.10
2012,07,13,01,25,16.00
2012,07,13,01,26,16.00
2012,07,13,01,27,15.90
2012,07,13,01,28,15.90
2012,07,13,01,29,15.80
2012,07,13,01,30,15.80
2012,07,13,01,31,15.80
2012,07,13,01,32,15.70
2012,07,13,01,33,15.70
2012,07,13,01,34,15.70
2012,07,13,01,35,15.60
2012,07,13,01,36,15.60
2012,07,13,01,37,15.60
2012,07,13,01,38,15.50
2012,07,13,01,39,15.50
2012,07,13,01,40,15.50
2012,07,13,01,41,15.40
2012,07,13,01,42,15.40
2012,07,13,01,43,15.30
2012,07,13,01,44,15.30
2012,07,13,01,45,15.30
2012,07,13,01,46,15.30
2012,07,13,01,47,15.20
2012,07,13,01,48,15.20
2012,07,13,01,49,15.20
2012,07,13,01,50,15.20
2012,07,13,01,51,15.10
2012,07,13,01,52,15.10
2012,07,13,01,53,15.10
2012,07,13,01,54,15.10
2012,07,13,01,55,15.00
2012,07,13,01,56,15.00
2012,07,13,01,57,14.90
2012,07,13,01,58,14.90
2012,07,13,01,59,14.90
2012,07,13,02,00,14.80
2012,07,13,02,01,14.80
2012,07,13,02,02,14.80
2012,07,13,02,03,14.80
2012,07,13,02,04,14.70
2012,07,13,02,05,14.70
2012,07,13,02,06,14.70
2012,07,13,02,07,14.70
2012,07,13,02,08,14.60
2012,07,13,02,09,14.60
2012,07,13,02,10,14.60
2012,07,13,02,11,14.50
2012,07,13,02,12,14.50
2012,07,13,02,13,14.50
2012,07,13,02,14,14.40
2012,07,13,02,15,14.40
2012,07,13,02,16,14.40
2012,07,13,02,17,14.30
2012,07,13,02,18,14.30
2012,07,13,02,19,14.30
2012,07,13,02,20,14.30
2012,07,13,02,21,14.20
2012,07,13,02,22,14.20
2012,07,13,02,23,14.20
2012,07,13,02,24,14.20
2012,07,13,02,25,14.10
2012,07,13,02,26,14.10
2012,07,13,02,27,14.10
2012,07,13,02,28,14.10
2012,07,13,02,29,14.10
2012,07,13,02,30,14.00
2012,07,13,02,31,14.00
2012,07,13,02,32,13.90
2012,07,13,02,33,13.90
2012,07,13,02,34,13.90
2012,07,13,02,35,13.90
2012,07,13,02,36,13.80
2012,07,13,02,37,13.80
2012,07,13,02,38,13.80
2012,07,13,02,39,13.80
2012,07,13,02,40,13.70
2012,07,13,02,41,13.70
2012,07,13,02,42,13.70
2012,07,13,02,43,13.60
2012,07,13,02,44,13.60
2012,07,13,02,45,13.60
2012,07,13,02,46,13.60
2012,07,13,02,47,13.50
2012,07,13,02,48,13.50
2012,07,13,02,49,13.50
2012,07,13,02,50,13.40
2012,07,13,02,51,13.40
2012,07,13,02,52,13.40
2012,07,13,02,53,13.30
2012,07,13,02,54,13.30
2012,07,13,02,55,13.30
2012,07,13,02,56,13.30
2012,07,13,02,57,13.30
2012,07,13,02,58,13.20
2012,07,13,02,59,13.20
2012,07,13,03,00,13.20
2012,07,13,03,01,13.20
2012,07,13,03,02,13.20
2012,07,13,03,03,13.10
2012,07,13,03,04,13.10
2012,07,13,03,05,13.10
2012,07,13,03,06,13.10
2012,07,13,03,07,13.10
2012,07,13,03,08,13.10
2012,07,13,03,09,13.00
2012,07,13,03,10,13.00
2012,07,13,03,11,13.00
2012,07,13,03,12,12.90
2012,07,13,03,13,12.90
2012,07,13,03,14,12.90
2012,07,13,03,15,12.90
2012,07,13,03,16,12.80
2012,07,13,03,17,12.80
2012,07,13,03,18,12.80
2012,07,13,03,19,12.80
2012,07,13,03,20,12.80
2012,07,13,03,21,12.70
2012,07,13,03,22,12.70
2012,07,13,03,23,12.70
2012,07,13,03,24,12.70
2012,07,13,03,25,12.70
2012,07,13,03,26,12.60
2012,07,13,03,27,12.60
2012,07,13,03,28,12.60
2012,07,13,03,29,12.60
2012,07,13,03,30,12.50
2012,07,13,03,31,12.50
2012,07,13,03,32,12.50
2012,07,13,03,33,12.40
2012,07,13,03,34,12.40
2012,07,13,03,35,12.40
2012,07,13,03,36,12.40
2012,07,13,03,37,12.40
2012,07,13,03,38,12.40
2012,07,13,03,39,12.40
2012,07,13,03,40,12.30
2012,07,13,03,41,12.30
2012,07,13,03,42,12.30
2012,07,13,03,43,12.30
2012,07,13,03,44,12.30
2012,07,13,03,45,12.30
2012,07,13,03,46,12.30
2012,07,13,03,47,12.30
2012,07,13,03,48,12.30
2012,07,13,03,49,12.30
2012,07,13,03,50,12.30
2012,07,13,03,51,12.20
2012,07,13,03,52,12.20
2012,07,13,03,53,12.20
2012,07,13,03,54,12.20
2012,07,13,03,55,12.20
2012,07,13,03,56,12.20
2012,07,13,03,57,12.20
2012,07,13,03,58,12.20
2012,07,13,03,59,12.20
2012,07,13,04,00,12.10
2012,07,13,04,01,12.10
2012,07,13,04,02,12.10
2012,07,13,04,03,12.10
2012,07,13,04,04,12.10
2012,07,13,04,05,12.10
2012,07,13,04,06,12.00
2012,07,13,04,07,12.00
2012,07,13,04,08,12.00
2012,07,13,04,09,11.90
2012,07,13,04,10,11.90
2012,07,13,04,11,11.90
2012,07,13,04,12,11.90
2012,07,13,04,13,11.80
2012,07,13,04,14,11.80
2012,07,13,04,15,11.80
2012,07,13,04,16,11.80
2012,07,13,04,17,11.80
2012,07,13,04,18,11.80
2012,07,13,04,19,11.80
2012,07,13,04,20,11.80
2012,07,13,04,21,11.70
2012,07,13,04,22,11.70
2012,07,13,04,23,11.70
2012,07,13,04,24,11.70
2012,07,13,04,25,11.70
2012,07,13,04,26,11.70
2012,07,13,04,27,11.70
2012,07,13,04,28,11.60
2012,07,13,04,29,11.60
2012,07,13,04,30,11.60
2012,07,13,04,31,11.60
2012,07,13,04,32,11.60
2012,07,13,04,33,11.60
2012,07,13,04,34,11.50
2012,07,13,04,35,11.50
2012,07,13,04,36,11.50
2012,07,13,04,37,11.50
2012,07,13,04,38,11.40
2012,07,13,04,39,11.40
2012,07,13,04,40,11.40
2012,07,13,04,41,11.40
2012,07,13,04,42,11.40
2012,07,13,04,43,11.30
2012,07,13,04,44,11.30
2012,07,13,04,45,11.30
2012,07,13,04,46,11.30
2012,07,13,04,47,11.30
2012,07,13,04,48,11.30
2012,07,13,04,49,11.20
2012,07,13,04,50,11.20
2012,07,13,04,51,11.20
2012,07,13,04,52,11.20
2012,07,13,04,53,11.20
2012,07,13,04,54,11.20
2012,07,13,04,55,11.10
2012,07,13,04,56,11.10
2012,07,13,04,57,11.10
2012,07,13,04,58,11.10
2012,07,13,04,59,11.10
2012,07,13,05,00,11.10
2012,07,13,05,01,11.10
2012,07,13,05,02,11.00
2012,07,13,05,03,11.00
2012,07,13,05,04,11.00
2012,07,13,05,05,11.00
2012,07,13,05,06,11.00
2012,07,13,05,07,11.00
2012,07,13,05,08,10.90
2012,07,13,05,09,10.90
2012,07,13,05,10,10.90
2012,07,13,05,11,10.90
2012,07,13,05,12,10.90
2012,07,13,05,13,10.90
2012,07,13,05,14,10.90
2012,07,13,05,15,10.90
2012,07,13,05,16,10.80
2012,07,13,05,17,10.80
2012,07,13,05,18,10.80
2012,07,13,05,19,10.80
2012,07,13,05,20,10.80
2012,07,13,05,21,10.80
2012,07,13,05,22,10.80
2012,07,13,05,23,10.80
2012,07,13,05,24,10.70
2012,07,13,05,25,10.70
2012,07,13,05,26,10.70
2012,07,13,05,27,10.70
2012,07,13,05,28,10.70
2012,07,13,05,29,10.70
2012,07,13,05,30,10.70
2012,07,13,05,31,10.70
2012,07,13,05,32,10.60
2012,07,13,05,33,10.60
2012,07,13,05,34,10.60
2012,07,13,05,35,10.60
2012,07,13,05,36,10.60
2012,07,13,05,37,10.50
2012,07,13,05,38,10.50
2012,07,13,05,39,10.50
2012,07,13,05,40,10.50
2012,07,13,05,41,10.50
2012,07,13,05,42,10.40
2012,07,13,05,43,10.40
2012,07,13,05,44,10.40
2012,07,13,05,45,10.40
2012,07,13,05,46,10.40
2012,07,13,05,47,10.40
2012,07,13,05,48,10.40
2012,07,13,05,49,10.40
2012,07,13,05,50,10.40
2012,07,13,05,51,10.40
2012,07,13,05,52,10.40
2012,07,13,05,53,10.40
2012,07,13,05,54,10.40
2012,07,13,05,55,10.30
2012,07,13,05,56,10.30
2012,07,13,05,57,10.30
2012,07,13,05,58,10.30
2012,07,13,05,59,10.30
2012,07,13,06,00,10.30
2012,07,13,06,01,10.30
2012,07,13,06,02,10.30
2012,07,13,06,03,10.30
2012,07,13,06,04,10.30
2012,07,13,06,05,10.30
2012,07,13,06,06,10.30
2012,07,13,06,07,10.30
2012,07,13,06,08,10.30
2012,07,13,06,09,10.30
2012,07,13,06,10,10.30
2012,07,13,06,11,10.30
2012,07,13,06,12,10.30
2012,07,13,06,13,10.30
2012,07,13,06,14,10.30
2012,07,13,06,15,10.30
2012,07,13,06,16,10.30
2012,07,13,06,17,10.30
2012,07,13,06,18,10.30
2012,07,13,06,19,10.30
2012,07,13,06,20,10.30
2012,07,13,06,21,10.30
2012,07,13,06,22,10.30
2012,07,13,06,23,10.30
2012,07,13,06,24,10.30
2012,07,13,06,25,10.30
2012,07,13,06,26,10.30
2012,07,13,06,27,10.30
2012,07,13,06,28,10.30
2012,07,13,06,29,10.30
2012,07,13,06,30,10.30
2012,07,13,06,31,10.30
2012,07,13,06,32,10.30
2012,07,13,06,33,10.30
2012,07,13,06,34,10.20
2012,07,13,06,35,10.20
2012,07,13,06,36,10.20
2012,07,13,06,37,10.20
2012,07,13,06,38,10.20
2012,07,13,06,39,10.20
2012,07,13,06,40,10.20
2012,07,13,06,41,10.20
2012,07,13,06,42,10.20
2012,07,13,06,43,10.20
2012,07,13,06,44,10.20
2012,07,13,06,45,10.20
2012,07,13,06,46,10.30
2012,07,13,06,47,10.30
2012,07,13,06,48,10.30
2012,07,13,06,49,10.30
2012,07,13,06,50,10.30
2012,07,13,06,51,10.30
2012,07,13,06,52,10.30
2012,07,13,06,53,10.30
2012,07,13,06,54,10.40
2012,07,13,06,55,10.50
2012,07,13,06,56,10.50
2012,07,13,06,57,10.60
2012,07,13,06,58,10.70
2012,07,13,06,59,10.70
2012,07,13,07,00,10.80
2012,07,13,07,01,10.90
2012,07,13,07,02,11.00
2012,07,13,07,03,11.00
2012,07,13,07,04,11.20
2012,07,13,07,05,11.30
2012,07,13,07,06,11.40
2012,07,13,07,07,11.50
2012,07,13,07,08,11.60
2012,07,13,07,09,11.70
2012,07,13,07,10,11.70
2012,07,13,07,11,11.90
2012,07,13,07,12,11.90
2012,07,13,07,13,12.00
2012,07,13,07,14,12.10
2012,07,13,07,15,12.10
2012,07,13,07,16,12.20
2012,07,13,07,17,12.30
2012,07,13,07,18,12.40
2012,07,13,07,19,12.40
2012,07,13,07,20,12.50
2012,07,13,07,21,12.60
2012,07,13,07,22,12.60
2012,07,13,07,23,12.70
2012,07,13,07,24,12.70
2012,07,13,07,25,12.80
2012,07,13,07,26,12.90
2012,07,13,07,27,12.90
2012,07,13,07,28,13.00
2012,07,13,07,29,13.00
2012,07,13,07,30,13.10
2012,07,13,07,31,13.10
2012,07,13,07,32,13.20
2012,07,13,07,33,13.30
2012,07,13,07,34,13.30
2012,07,13,07,35,13.30
2012,07,13,07,36,13.30
2012,07,13,07,37,13.40
2012,07,13,07,38,13.40
2012,07,13,07,39,13.40
2012,07,13,07,40,13.50
2012,07,13,07,41,13.60
2012,07,13,07,42,13.60
2012,07,13,07,43,13.70
2012,07,13,07,44,13.80
2012,07,13,07,45,13.90
2012,07,13,07,46,14.00
2012,07,13,07,47,14.00
2012,07,13,07,48,14.10
2012,07,13,07,49,14.10
2012,07,13,07,50,14.10
2012,07,13,07,51,14.10
2012,07,13,07,52,14.10
2012,07,13,07,53,14.10
2012,07,13,07,54,14.10
2012,07,13,07,55,14.10
2012,07,13,07,56,14.20
2012,07,13,07,57,14.20
2012,07,13,07,58,14.30
2012,07,13,07,59,14.30
2012,07,13,08,00,14.40
2012,07,13,08,01,14.50
2012,07,13,08,02,14.60
2012,07,13,08,03,14.70
2012,07,13,08,04,14.80
2012,07,13,08,05,14.80
2012,07,13,08,06,14.90
2012,07,13,08,07,14.90
2012,07,13,08,08,14.90
2012,07,13,08,09,15.00
2012,07,13,08,10,15.10
2012,07,13,08,11,15.10
2012,07,13,08,12,15.20
2012,07,13,08,13,15.20
2012,07,13,08,14,15.20
2012,07,13,08,15,15.30
2012,07,13,08,16,15.30
2012,07,13,08,17,15.40
2012,07,13,08,18,15.50
2012,07,13,08,19,15.50
2012,07,13,08,20,15.60
2012,07,13,08,21,15.60
2012,07,13,08,22,15.70
2012,07,13,08,23,15.70
2012,07,13,08,24,15.80
2012,07,13,08,25,15.80
2012,07,13,08,26,15.90
2012,07,13,08,27,16.00
2012,07,13,08,28,16.10
2012,07,13,08,29,16.20
2012,07,13,08,30,16.20
2012,07,13,08,31,16.30
2012,07,13,08,32,16.40
2012,07,13,08,33,16.40
2012,07,13,08,34,16.50
2012,07,13,08,35,16.50
2012,07,13,08,36,16.60
2012,07,13,08,37,16.70
2012,07,13,08,38,16.80
2012,07,13,08,39,16.90
2012,07,13,08,40,17.00
2012,07,13,08,41,17.10
2012,07,13,08,42,17.20
2012,07,13,08,43,17.30
2012,07,13,08,44,17.40
2012,07,13,08,45,17.50
2012,07,13,08,46,17.50
2012,07,13,08,47,17.50
2012,07,13,08,48,17.50
2012,07,13,08,49,17.50
2012,07,13,08,50,17.50
2012,07,13,08,51,17.50
2012,07,13,08,52,17.50
2012,07,13,08,53,17.50
2012,07,13,08,54,17.60
2012,07,13,08,55,17.60
2012,07,13,08,56,17.70
2012,07,13,08,57,17.70
2012,07,13,08,58,17.70
2012,07,13,08,59,17.80
2012,07,13,09,00,17.80
2012,07,13,09,01,17.80
2012,07,13,09,02,17.80
2012,07,13,09,03,17.80
2012,07,13,09,04,17.80
2012,07,13,09,05,17.80
2012,07,13,09,06,17.80
2012,07,13,09,07,17.80
2012,07,13,09,08,17.80
2012,07,13,09,09,17.80
2012,07,13,09,10,17.80
2012,07,13,09,11,17.90
2012,07,13,09,12,17.90
2012,07,13,09,13,18.00
2012,07,13,09,14,18.10
2012,07,13,09,15,18.20
2012,07,13,09,16,18.20
2012,07,13,09,17,18.20
2012,07,13,09,18,18.20
2012,07,13,09,19,18.30
2012,07,13,09,20,18.30
2012,07,13,09,21,18.40
2012,07,13,09,22,18.50
2012,07,13,09,23,18.60
2012,07,13,09,24,18.70
2012,07,13,09,25,18.70
2012,07,13,09,26,18.70
2012,07,13,09,27,18.70
2012,07,13,09,28,18.80
2012,07,13,09,29,18.80
2012,07,13,09,30,18.90
2012,07,13,09,31,19.00
2012,07,13,09,32,19.10
2012,07,13,09,33,19.20
2012,07,13,09,34,19.20
2012,07,13,09,35,19.20
2012,07,13,09,36,19.30
2012,07,13,09,37,19.40
2012,07,13,09,38,19.50
2012,07,13,09,39,19.50
2012,07,13,09,40,19.60
2012,07,13,09,41,19.70
2012,07,13,09,42,19.60
2012,07,13,09,43,19.60
2012,07,13,09,44,19.60
2012,07,13,09,45,19.60
2012,07,13,09,46,19.60
2012,07,13,09,47,19.60
2012,07,13,09,48,19.60
2012,07,13,09,49,19.60
2012,07,13,09,50,19.70
2012,07,13,09,51,19.70
2012,07,13,09,52,19.80
2012,07,13,09,53,19.80
2012,07,13,09,54,19.80
2012,07,13,09,55,19.90
2012,07,13,09,56,19.90
2012,07,13,09,57,19.80
2012,07,13,09,58,19.80
2012,07,13,09,59,19.80
2012,07,13,10,00,19.80
2012,07,13,10,01,19.90
2012,07,13,10,02,19.90
2012,07,13,10,03,19.90
2012,07,13,10,04,19.90
2012,07,13,10,05,20.00
2012,07,13,10,06,20.00
2012,07,13,10,07,20.10
2012,07,13,10,08,20.20
2012,07,13,10,09,20.30
2012,07,13,10,10,20.40
2012,07,13,10,11,20.50
2012,07,13,10,12,20.60
2012,07,13,10,13,20.70
2012,07,13,10,14,20.70
2012,07,13,10,15,20.70
2012,07,13,10,16,20.70
2012,07,13,10,17,20.70
2012,07,13,10,18,20.70
2012,07,13,10,19,20.80
2012,07,13,10,20,20.80
2012,07,13,10,21,20.80
2012,07,13,10,22,20.90
2012,07,13,10,23,20.90
2012,07,13,10,24,21.00
2012,07,13,10,25,21.00
2012,07,13,10,26,21.10
2012,07,13,10,27,21.20
2012,07,13,10,28,21.20
2012,07,13,10,29,21.30
2012,07,13,10,30,21.30
2012,07,13,10,31,21.30
2012,07,13,10,32,21.30
2012,07,13,10,33,21.30
2012,07,13,10,34,21.40
2012,07,13,10,35,21.40
2012,07,13,10,36,21.40
2012,07,13,10,37,21.50
2012,07,13,10,38,21.60
2012,07,13,10,39,21.70
2012,07,13,10,40,21.70
2012,07,13,10,41,21.70
2012,07,13,10,42,21.70
2012,07,13,10,43,21.70
2012,07,13,10,44,21.70
2012,07,13,10,45,21.70
2012,07,13,10,46,21.80
2012,07,13,10,47,21.90
2012,07,13,10,48,22.00
2012,07,13,10,49,22.00
2012,07,13,10,50,22.10
2012,07,13,10,51,22.10
2012,07,13,10,52,22.10
2012,07,13,10,53,22.10
2012,07,13,10,54,22.10
2012,07,13,10,55,22.10
2012,07,13,10,56,22.10
2012,07,13,10,57,22.20
2012,07,13,10,58,22.30
2012,07,13,10,59,22.40
2012,07,13,11,00,22.50
2012,07,13,11,01,22.60
2012,07,13,11,02,22.70
2012,07,13,11,03,22.80
2012,07,13,11,04,22.80
2012,07,13,11,05,22.80
2012,07,13,11,06,22.80
2012,07,13,11,07,22.80
2012,07,13,11,08,22.80
2012,07,13,11,09,22.80
2012,07,13,11,10,22.90
2012,07,13,11,11,23.00
2012,07,13,11,12,23.00
2012,07,13,11,13,23.20
2012,07,13,11,14,23.30
2012,07,13,11,15,23.30
2012,07,13,11,16,23.40
2012,07,13,11,17,23.50
2012,07,13,11,18,23.50
2012,07,13,11,19,23.50
2012,07,13,11,20,23.50
2012,07,13,11,21,23.50
2012,07,13,11,22,23.60
2012,07,13,11,23,23.60
2012,07,13,11,24,23.60
2012,07,13,11,25,23.70
2012,07,13,11,26,23.70
2012,07,13,11,27,23.70
2012,07,13,11,28,23.80
2012,07,13,11,29,23.80
2012,07,13,11,30,23.90
2012,07,13,11,31,24.10
2012,07,13,11,32,24.20
2012,07,13,11,33,24.30
2012,07,13,11,34,24.40
2012,07,13,11,35,24.60
2012,07,13,11,36,24.70
2012,07,13,11,37,24.80
2012,07,13,11,38,24.90
2012,07,13,11,39,24.90
2012,07,13,11,40,25.00
2012,07,13,11,41,24.90
2012,07,13,11,42,24.90
2012,07,13,11,43,25.00
2012,07,13,11,44,25.00
2012,07,13,11,45,25.20
2012,07,13,11,46,25.20
2012,07,13,11,47,25.30
2012,07,13,11,48,25.40
2012,07,13,11,49,25.40
2012,07,13,11,50,25.50
2012,07,13,11,51,25.50
2012,07,13,11,52,25.60
2012,07,13,11,53,25.60
2012,07,13,11,54,25.70
2012,07,13,11,55,25.70
2012,07,13,11,56,25.80
2012,07,13,11,57,25.80
2012,07,13,11,58,25.80
2012,07,13,11,59,25.80
2012,07,13,12,00,25.90
2012,07,13,12,01,25.90
2012,07,13,12,02,26.00
2012,07,13,12,03,26.10
2012,07,13,12,04,26.20
2012,07,13,12,05,26.30
2012,07,13,12,06,26.40
2012,07,13,12,07,26.40
2012,07,13,12,08,26.50
2012,07,13,12,09,26.60
2012,07,13,12,10,26.70
2012,07,13,12,11,26.80
2012,07,13,12,12,26.80
2012,07,13,12,13,26.70
2012,07,13,12,14,26.70
2012,07,13,12,15,26.70
2012,07,13,12,16,26.70
2012,07,13,12,17,26.70
2012,07,13,12,18,26.70
2012,07,13,12,19,26.70
2012,07,13,12,20,26.80
2012,07,13,12,21,26.80
2012,07,13,12,22,26.80
2012,07,13,12,23,26.80
2012,07,13,12,24,26.80
2012,07,13,12,25,26.80
2012,07,13,12,26,26.80
2012,07,13,12,27,26.80
2012,07,13,12,28,26.80
2012,07,13,12,29,26.90
2012,07,13,12,30,26.90
2012,07,13,12,31,26.90
2012,07,13,12,32,27.00
2012,07,13,12,33,27.00
2012,07,13,12,34,27.00
2012,07,13,12,35,27.10
2012,07,13,12,36,27.10
2012,07,13,12,37,27.20
2012,07,13,12,38,27.30
2012,07,13,12,39,27.50
2012,07,13,12,40,27.50
2012,07,13,12,41,27.60
2012,07,13,12,42,27.80
2012,07,13,12,43,27.90
2012,07,13,12,44,28.00
2012,07,13,12,45,28.10
2012,07,13,12,46,28.20
2012,07,13,12,47,28.30
2012,07,13,12,48,28.40
2012,07,13,12,49,28.50
2012,07,13,12,50,28.50
2012,07,13,12,51,28.50
2012,07,13,12,52,28.40
2012,07,13,12,53,28.40
2012,07,13,12,54,28.40
2012,07,13,12,55,28.40
2012,07,13,12,56,28.40
2012,07,13,12,57,28.40
2012,07,13,12,58,28.40
2012,07,13,12,59,28.30
2012,07,13,13,00,28.40
2012,07,13,13,01,28.50
2012,07,13,13,02,28.60
2012,07,13,13,03,28.70
2012,07,13,13,04,28.80
2012,07,13,13,05,28.80
2012,07,13,13,06,28.80
2012,07,13,13,07,28.80
2012,07,13,13,08,28.80
2012,07,13,13,09,28.80
2012,07,13,13,10,28.70
2012,07,13,13,11,28.70
2012,07,13,13,12,28.80
2012,07,13,13,13,28.80
2012,07,13,13,14,28.80
2012,07,13,13,15,28.90
2012,07,13,13,16,28.90
2012,07,13,13,17,28.90
2012,07,13,13,18,28.90
2012,07,13,13,19,28.90
2012,07,13,13,20,28.90
2012,07,13,13,21,28.90
2012,07,13,13,22,28.90
2012,07,13,13,23,28.90
2012,07,13,13,24,28.90
2012,07,13,13,25,29.00
2012,07,13,13,26,29.10
2012,07,13,13,27,29.10
2012,07,13,13,28,29.20
2012,07,13,13,29,29.20
2012,07,13,13,30,29.20
2012,07,13,13,31,29.20
2012,07,13,13,32,29.20
2012,07,13,13,33,29.20
2012,07,13,13,34,29.20
2012,07,13,13,35,29.20
2012,07,13,13,36,29.20
2012,07,13,13,37,29.20
2012,07,13,13,38,29.20
2012,07,13,13,39,29.20
2012,07,13,13,40,29.20
2012,07,13,13,41,29.30
2012,07,13,13,42,29.20
2012,07,13,13,43,29.20
2012,07,13,13,44,29.20
2012,07,13,13,45,29.30
2012,07,13,13,46,29.30
2012,07,13,13,47,29.30
2012,07,13,13,48,29.40
2012,07,13,13,49,29.50
2012,07,13,13,50,29.60
2012,07,13,13,51,29.80
2012,07,13,13,52,29.80
2012,07,13,13,53,29.80
2012,07,13,13,54,29.90
2012,07,13,13,55,29.90
2012,07,13,13,56,30.00
2012,07,13,13,57,30.10
2012,07,13,13,58,30.20
2012,07,13,13,59,30.20
2012,07,13,14,00,30.20
2012,07,13,14,01,30.30
2012,07,13,14,02,30.30
2012,07,13,14,03,30.40
2012,07,13,14,04,30.40
2012,07,13,14,05,30.60
2012,07,13,14,06,30.70
2012,07,13,14,07,30.90
2012,07,13,14,08,31.00
2012,07,13,14,09,31.20
2012,07,13,14,10,31.20
2012,07,13,14,11,31.30
2012,07,13,14,12,31.30
2012,07,13,14,13,31.30
2012,07,13,14,14,31.30
2012,07,13,14,15,31.30
2012,07,13,14,16,31.20
2012,07,13,14,17,31.10
2012,07,13,14,18,31.20
2012,07,13,14,19,31.20
2012,07,13,14,20,31.30
2012,07,13,14,21,31.30
2012,07,13,14,22,31.40
2012,07,13,14,23,31.50
2012,07,13,14,24,31.50
2012,07,13,14,25,31.50
2012,07,13,14,26,31.50
2012,07,13,14,27,31.60
2012,07,13,14,28,31.70
2012,07,13,14,29,31.70
2012,07,13,14,30,31.60
2012,07,13,14,31,31.40
2012,07,13,14,32,31.30
2012,07,13,14,33,31.20
2012,07,13,14,34,31.10
2012,07,13,14,35,31.00
2012,07,13,14,36,30.90
2012,07,13,14,37,30.80
2012,07,13,14,38,30.80
2012,07,13,14,39,30.70
2012,07,13,14,40,30.70
2012,07,13,14,41,30.70
2012,07,13,14,42,30.70
2012,07,13,14,43,30.60
2012,07,13,14,44,30.60
2012,07,13,14,45,30.50
2012,07,13,14,46,30.40
2012,07,13,14,47,30.30
2012,07,13,14,48,30.20
2012,07,13,14,49,30.10
2012,07,13,14,50,30.10
2012,07,13,14,51,30.10
2012,07,13,14,52,30.10
2012,07,13,14,53,30.10
2012,07,13,14,54,30.10
2012,07,13,14,55,30.00
2012,07,13,14,56,29.90
2012,07,13,14,57,29.90
2012,07,13,14,58,29.90
2012,07,13,14,59,29.90
2012,07,13,15,00,29.90
2012,07,13,15,01,29.90
2012,07,13,15,02,29.90
2012,07,13,15,03,29.90
2012,07,13,15,04,30.00
2012,07,13,15,05,30.00
2012,07,13,15,06,30.00
2012,07,13,15,07,29.90
2012,07,13,15,08,29.90
2012,07,13,15,09,29.80
2012,07,13,15,10,29.80
2012,07,13,15,11,29.80
2012,07,13,15,12,29.80
2012,07,13,15,13,29.80
2012,07,13,15,14,29.80
2012,07,13,15,15,29.80
2012,07,13,15,16,29.80
2012,07,13,15,17,29.70
2012,07,13,15,18,29.70
2012,07,13,15,19,29.70
2012,07,13,15,20,29.70
2012,07,13,15,21,29.60
2012,07,13,15,22,29.60
2012,07,13,15,23,29.60
2012,07,13,15,24,29.60
2012,07,13,15,25,29.60
2012,07,13,15,26,29.70
2012,07,13,15,27,29.70
2012,07,13,15,28,29.70
2012,07,13,15,29,29.70
2012,07,13,15,30,29.70
2012,07,13,15,31,29.80
2012,07,13,15,32,29.80
2012,07,13,15,33,29.80
2012,07,13,15,34,29.80
2012,07,13,15,35,29.90
2012,07,13,15,36,29.90
2012,07,13,15,37,29.90
2012,07,13,15,38,29.90
2012,07,13,15,39,29.90
2012,07,13,15,40,30.00
2012,07,13,15,41,30.00
2012,07,13,15,42,30.00
2012,07,13,15,43,30.00
2012,07,13,15,44,30.10
2012,07,13,15,45,30.10
2012,07,13,15,46,30.10
2012,07,13,15,47,30.10
2012,07,13,15,48,30.10
2012,07,13,15,49,30.10
2012,07,13,15,50,30.10
2012,07,13,15,51,30.10
2012,07,13,15,52,30.10
2012,07,13,15,53,30.10
2012,07,13,15,54,30.10
2012,07,13,15,55,30.10
2012,07,13,15,56,30.10
2012,07,13,15,57,30.10
2012,07,13,15,58,30.10
2012,07,13,15,59,30.10
2012,07,13,16,00,30.10
2012,07,13,16,01,30.20
2012,07,13,16,02,30.30
2012,07,13,16,03,30.30
2012,07,13,16,04,30.30
2012,07,13,16,05,30.30
2012,07,13,16,06,30.20
2012,07,13,16,07,30.20
2012,07,13,16,08,30.20
2012,07,13,16,09,30.30
2012,07,13,16,10,30.30
2012,07,13,16,11,30.40
2012,07,13,16,12,30.40
2012,07,13,16,13,30.40
2012,07,13,16,14,30.40
2012,07,13,16,15,30.50
2012,07,13,16,16,30.40
2012,07,13,16,17,30.40
2012,07,13,16,18,30.40
2012,07,13,16,19,30.30
2012,07,13,16,20,30.30
2012,07,13,16,21,30.30
2012,07,13,16,22,30.30
2012,07,13,16,23,30.30
2012,07,13,16,24,30.20
2012,07,13,16,25,30.20
2012,07,13,16,26,30.20
2012,07,13,16,27,30.20
2012,07,13,16,28,30.20
2012,07,13,16,29,30.20
2012,07,13,16,30,30.20
2012,07,13,16,31,30.20
2012,07,13,16,32,30.20
2012,07,13,16,33,30.30
2012,07,13,16,34,30.30
2012,07,13,16,35,30.20
2012,07,13,16,36,30.20
2012,07,13,16,37,30.20
2012,07,13,16,38,30.20
2012,07,13,16,39,30.20
2012,07,13,16,40,30.10
2012,07,13,16,41,30.00
2012,07,13,16,42,29.90
2012,07,13,16,43,29.90
2012,07,13,16,44,29.90
2012,07,13,16,45,29.90
2012,07,13,16,46,29.90
2012,07,13,16,47,29.90
2012,07,13,16,48,29.90
2012,07,13,16,49,29.90
2012,07,13,16,50,30.00
2012,07,13,16,51,30.00
2012,07,13,16,52,30.10
2012,07,13,16,53,30.10
2012,07,13,16,54,30.00
2012,07,13,16,55,30.00
2012,07,13,16,56,29.90
2012,07,13,16,57,29.90
2012,07,13,16,58,29.90
2012,07,13,16,59,29.90
2012,07,13,17,00,29.80
2012,07,13,17,01,29.70
2012,07,13,17,02,29.70
2012,07,13,17,03,29.70
2012,07,13,17,04,29.70
2012,07,13,17,05,29.70
2012,07,13,17,06,29.60
2012,07,13,17,07,29.50
2012,07,13,17,08,29.40
2012,07,13,17,09,29.30
2012,07,13,17,10,29.40
2012,07,13,17,11,29.40
2012,07,13,17,12,29.40
2012,07,13,17,13,29.40
2012,07,13,17,14,29.40
2012,07,13,17,15,29.40
2012,07,13,17,16,29.30
2012,07,13,17,17,29.30
2012,07,13,17,18,29.30
2012,07,13,17,19,29.30